Year,Month,Day,Hour,Minute,Value (Times are PST for temperature in C)
2011,03,23,00,00,1.90
2011,03,23,00,01,2.00
2011,03,23,00,02,2.00
2011,03,23,00,03,2.10
2011,03,23,00,04,2.10
2011,03,23,00,05,2.10
2011,03,23,00,06,2.20
2011,03,23,00,07,2.20
2011,03,23,00,08,2.20
2011,03,23,00,09,2.30
2011,03,23,00,10,2.30
2011,03,23,00,11,2.30
2011,03,23,00,12,2.30
2011,03,23,00,13,2.30
2011,03,23,00,14,2.30
2011,03,23,00,15,2.30
2011,03,23,00,16,2.30
2011,03,23,00,17,2.40
2011,03,23,00,18,2.40
2011,03,23,00,19,2.50
2011,03,23,00,20,2.50
2011,03,23,00,21,2.50
2011,03,23,00,22,2.50
2011,03,23,00,23,2.50
2011,03,23,00,24,2.60
2011,03,23,00,25,2.60
2011,03,23,00,26,2.60
2011,03,23,00,27,2.60
2011,03,23,00,28,2.60
2011,03,23,00,29,2.60
2011,03,23,00,30,2.60
2011,03,23,00,31,2.60
2011,03,23,00,32,2.60
2011,03,23,00,33,2.60
2011,03,23,00,34,2.60
2011,03,23,00,35,2.60
2011,03,23,00,36,2.60
2011,03,23,00,37,2.60
2011,03,23,00,38,2.60
2011,03,23,00,39,2.60
2011,03,23,00,40,2.60
2011,03,23,00,41,2.50
2011,03,23,00,42,2.50
2011,03,23,00,43,2.50
2011,03,23,00,44,2.50
2011,03,23,00,45,2.40
2011,03,23,00,46,2.40
2011,03,23,00,47,2.40
2011,03,23,00,48,2.40
2011,03,23,00,49,2.40
2011,03,23,00,50,2.30
2011,03,23,00,51,2.30
2011,03,23,00,52,2.30
2011,03,23,00,53,2.30
2011,03,23,00,54,2.30
2011,03,23,00,55,2.30
2011,03,23,00,56,2.30
2011,03,23,00,57,2.30
2011,03,23,00,58,2.30
2011,03,23,00,59,2.30
2011,03,23,01,00,2.30
2011,03,23,01,01,2.40
2011,03,23,01,02,2.40
2011,03,23,01,03,2.40
2011,03,23,01,04,2.40
2011,03,23,01,05,2.40
2011,03,23,01,06,2.40
2011,03,23,01,07,2.40
2011,03,23,01,08,2.40
2011,03,23,01,09,2.40
2011,03,23,01,10,2.40
2011,03,23,01,11,2.40
2011,03,23,01,12,2.40
2011,03,23,01,13,2.50
2011,03,23,01,14,2.50
2011,03,23,01,15,2.50
2011,03,23,01,16,2.50
2011,03,23,01,17,2.50
2011,03,23,01,18,2.50
2011,03,23,01,19,2.60
2011,03,23,01,20,2.60
2011,03,23,01,21,2.60
2011,03,23,01,22,2.60
2011,03,23,01,23,2.60
2011,03,23,01,24,2.60
2011,03,23,01,25,2.60
2011,03,23,01,26,2.60
2011,03,23,01,27,2.60
2011,03,23,01,28,2.60
2011,03,23,01,29,2.60
2011,03,23,01,30,2.60
2011,03,23,01,31,2.60
2011,03,23,01,32,2.60
2011,03,23,01,33,2.50
2011,03,23,01,34,2.50
2011,03,23,01,35,2.50
2011,03,23,01,36,2.50
2011,03,23,01,37,2.50
2011,03,23,01,38,2.50
2011,03,23,01,39,2.50
2011,03,23,01,40,2.50
2011,03,23,01,41,2.50
2011,03,23,01,42,2.50
2011,03,23,01,43,2.60
2011,03,23,01,44,2.60
2011,03,23,01,45,2.60
2011,03,23,01,46,2.60
2011,03,23,01,47,2.60
2011,03,23,01,48,2.60
2011,03,23,01,49,2.60
2011,03,23,01,50,2.60
2011,03,23,01,51,2.60
2011,03,23,01,52,2.60
2011,03,23,01,53,2.60
2011,03,23,01,54,2.60
2011,03,23,01,55,2.70
2011,03,23,01,56,2.60
2011,03,23,01,57,2.60
2011,03,23,01,58,2.60
2011,03,23,01,59,2.70
2011,03,23,02,00,2.70
2011,03,23,02,01,2.70
2011,03,23,02,02,2.70
2011,03,23,02,03,2.70
2011,03,23,02,04,2.70
2011,03,23,02,05,2.70
2011,03,23,02,06,2.70
2011,03,23,02,07,2.70
2011,03,23,02,08,2.80
2011,03,23,02,09,2.80
2011,03,23,02,10,2.80
2011,03,23,02,11,2.80
2011,03,23,02,12,2.80
2011,03,23,02,13,2.80
2011,03,23,02,14,2.80
2011,03,23,02,15,2.80
2011,03,23,02,16,2.80
2011,03,23,02,17,2.80
2011,03,23,02,18,2.80
2011,03,23,02,19,2.90
2011,03,23,02,20,2.90
2011,03,23,02,21,2.90
2011,03,23,02,22,2.90
2011,03,23,02,23,2.90
2011,03,23,02,24,2.90
2011,03,23,02,25,2.90
2011,03,23,02,26,2.90
2011,03,23,02,27,2.90
2011,03,23,02,28,3.00
2011,03,23,02,29,3.00
2011,03,23,02,30,3.00
2011,03,23,02,31,3.00
2011,03,23,02,32,3.00
2011,03,23,02,33,3.10
2011,03,23,02,34,3.10
2011,03,23,02,35,3.10
2011,03,23,02,36,3.10
2011,03,23,02,37,3.10
2011,03,23,02,38,3.10
2011,03,23,02,39,3.10
2011,03,23,02,40,3.10
2011,03,23,02,41,3.10
2011,03,23,02,42,3.10
2011,03,23,02,43,3.10
2011,03,23,02,44,3.20
2011,03,23,02,45,3.20
2011,03,23,02,46,3.20
2011,03,23,02,47,3.20
2011,03,23,02,48,3.20
2011,03,23,02,49,3.20
2011,03,23,02,50,3.20
2011,03,23,02,51,3.20
2011,03,23,02,52,3.20
2011,03,23,02,53,3.20
2011,03,23,02,54,3.20
2011,03,23,02,55,3.20
2011,03,23,02,56,3.20
2011,03,23,02,57,3.20
2011,03,23,02,58,3.20
2011,03,23,02,59,3.20
2011,03,23,03,00,3.20
2011,03,23,03,01,3.20
2011,03,23,03,02,3.20
2011,03,23,03,03,3.20
2011,03,23,03,04,3.20
2011,03,23,03,05,3.20
2011,03,23,03,06,3.20
2011,03,23,03,07,3.20
2011,03,23,03,08,3.20
2011,03,23,03,09,3.20
2011,03,23,03,10,3.20
2011,03,23,03,11,3.20
2011,03,23,03,12,3.20
2011,03,23,03,13,3.20
2011,03,23,03,14,3.10
2011,03,23,03,15,3.10
2011,03,23,03,16,3.10
2011,03,23,03,17,3.10
2011,03,23,03,18,3.10
2011,03,23,03,19,3.00
2011,03,23,03,20,3.00
2011,03,23,03,21,2.90
2011,03,23,03,22,2.90
2011,03,23,03,23,2.90
2011,03,23,03,24,2.90
2011,03,23,03,25,2.90
2011,03,23,03,26,2.80
2011,03,23,03,27,2.80
2011,03,23,03,28,2.80
2011,03,23,03,29,2.80
2011,03,23,03,30,2.70
2011,03,23,03,31,2.70
2011,03,23,03,32,2.70
2011,03,23,03,33,2.70
2011,03,23,03,34,2.60
2011,03,23,03,35,2.60
2011,03,23,03,36,2.60
2011,03,23,03,37,2.60
2011,03,23,03,38,2.60
2011,03,23,03,39,2.50
2011,03,23,03,40,2.50
2011,03,23,03,41,2.40
2011,03,23,03,42,2.40
2011,03,23,03,43,2.40
2011,03,23,03,44,2.30
2011,03,23,03,45,2.30
2011,03,23,03,46,2.20
2011,03,23,03,47,2.20
2011,03,23,03,48,2.20
2011,03,23,03,49,2.20
2011,03,23,03,50,2.20
2011,03,23,03,51,2.10
2011,03,23,03,52,2.10
2011,03,23,03,53,2.10
2011,03,23,03,54,2.00
2011,03,23,03,55,2.00
2011,03,23,03,56,1.90
2011,03,23,03,57,1.90
2011,03,23,03,58,1.90
2011,03,23,03,59,1.90
2011,03,23,04,00,1.80
2011,03,23,04,01,1.80
2011,03,23,04,02,1.70
2011,03,23,04,03,1.70
2011,03,23,04,04,1.70
2011,03,23,04,05,1.70
2011,03,23,04,06,1.70
2011,03,23,04,07,1.70
2011,03,23,04,08,1.70
2011,03,23,04,09,1.60
2011,03,23,04,10,1.60
2011,03,23,04,11,1.60
2011,03,23,04,12,1.60
2011,03,23,04,13,1.60
2011,03,23,04,14,1.50
2011,03,23,04,15,1.50
2011,03,23,04,16,1.40
2011,03,23,04,17,1.40
2011,03,23,04,18,1.40
2011,03,23,04,19,1.40
2011,03,23,04,20,1.30
2011,03,23,04,21,1.30
2011,03,23,04,22,1.30
2011,03,23,04,23,1.30
2011,03,23,04,24,1.30
2011,03,23,04,25,1.30
2011,03,23,04,26,1.30
2011,03,23,04,27,1.30
2011,03,23,04,28,1.30
2011,03,23,04,29,1.30
2011,03,23,04,30,1.30
2011,03,23,04,31,1.30
2011,03,23,04,32,1.30
2011,03,23,04,33,1.30
2011,03,23,04,34,1.30
2011,03,23,04,35,1.30
2011,03,23,04,36,1.30
2011,03,23,04,37,1.30
2011,03,23,04,38,1.30
2011,03,23,04,39,1.30
2011,03,23,04,40,1.30
2011,03,23,04,41,1.30
2011,03,23,04,42,1.30
2011,03,23,04,43,1.30
2011,03,23,04,44,1.30
2011,03,23,04,45,1.30
2011,03,23,04,46,1.30
2011,03,23,04,47,1.30
2011,03,23,04,48,1.30
2011,03,23,04,49,1.30
2011,03,23,04,50,1.30
2011,03,23,04,51,1.30
2011,03,23,04,52,1.30
2011,03,23,04,53,1.30
2011,03,23,04,54,1.30
2011,03,23,04,55,1.30
2011,03,23,04,56,1.40
2011,03,23,04,57,1.40
2011,03,23,04,58,1.50
2011,03,23,04,59,1.50
2011,03,23,05,00,1.50
2011,03,23,05,01,1.60
2011,03,23,05,02,1.60
2011,03,23,05,03,1.60
2011,03,23,05,04,1.60
2011,03,23,05,05,1.70
2011,03,23,05,06,1.70
2011,03,23,05,07,1.70
2011,03,23,05,08,1.70
2011,03,23,05,09,1.70
2011,03,23,05,10,1.70
2011,03,23,05,11,1.70
2011,03,23,05,12,1.70
2011,03,23,05,13,1.70
2011,03,23,05,14,1.70
2011,03,23,05,15,1.70
2011,03,23,05,16,1.80
2011,03,23,05,17,1.80
2011,03,23,05,18,1.80
2011,03,23,05,19,1.80
2011,03,23,05,20,1.80
2011,03,23,05,21,1.80
2011,03,23,05,22,1.80
2011,03,23,05,23,1.80
2011,03,23,05,24,1.80
2011,03,23,05,25,1.80
2011,03,23,05,26,1.80
2011,03,23,05,27,1.90
2011,03,23,05,28,1.90
2011,03,23,05,29,1.90
2011,03,23,05,30,1.90
2011,03,23,05,31,1.90
2011,03,23,05,32,1.80
2011,03,23,05,33,1.80
2011,03,23,05,34,1.80
2011,03,23,05,35,1.80
2011,03,23,05,36,1.90
2011,03,23,05,37,1.90
2011,03,23,05,38,1.90
2011,03,23,05,39,2.00
2011,03,23,05,40,2.00
2011,03,23,05,41,2.10
2011,03,23,05,42,2.10
2011,03,23,05,43,2.20
2011,03,23,05,44,2.20
2011,03,23,05,45,2.30
2011,03,23,05,46,2.30
2011,03,23,05,47,2.30
2011,03,23,05,48,2.30
2011,03,23,05,49,2.30
2011,03,23,05,50,2.30
2011,03,23,05,51,2.40
2011,03,23,05,52,2.40
2011,03,23,05,53,2.40
2011,03,23,05,54,2.40
2011,03,23,05,55,2.50
2011,03,23,05,56,2.50
2011,03,23,05,57,2.50
2011,03,23,05,58,2.50
2011,03,23,05,59,2.50
2011,03,23,06,00,2.50
2011,03,23,06,01,2.60
2011,03,23,06,02,2.60
2011,03,23,06,03,2.60
2011,03,23,06,04,2.60
2011,03,23,06,05,2.60
2011,03,23,06,06,2.60
2011,03,23,06,07,2.60
2011,03,23,06,08,2.60
2011,03,23,06,09,2.50
2011,03,23,06,10,2.50
2011,03,23,06,11,2.50
2011,03,23,06,12,2.50
2011,03,23,06,13,2.50
2011,03,23,06,14,2.50
2011,03,23,06,15,2.50
2011,03,23,06,16,2.50
2011,03,23,06,17,2.50
2011,03,23,06,18,2.50
2011,03,23,06,19,2.50
2011,03,23,06,20,2.50
2011,03,23,06,21,2.50
2011,03,23,06,22,2.50
2011,03,23,06,23,2.50
2011,03,23,06,24,2.50
2011,03,23,06,25,2.50
2011,03,23,06,26,2.50
2011,03,23,06,27,2.40
2011,03,23,06,28,2.40
2011,03,23,06,29,2.40
2011,03,23,06,30,2.40
2011,03,23,06,31,2.40
2011,03,23,06,32,2.40
2011,03,23,06,33,2.40
2011,03,23,06,34,2.40
2011,03,23,06,35,2.40
2011,03,23,06,36,2.40
2011,03,23,06,37,2.40
2011,03,23,06,38,2.40
2011,03,23,06,39,2.40
2011,03,23,06,40,2.40
2011,03,23,06,41,2.40
2011,03,23,06,42,2.40
2011,03,23,06,43,2.40
2011,03,23,06,44,2.40
2011,03,23,06,45,2.40
2011,03,23,06,46,2.40
2011,03,23,06,47,2.40
2011,03,23,06,48,2.40
2011,03,23,06,49,2.40
2011,03,23,06,50,2.40
2011,03,23,06,51,2.40
2011,03,23,06,52,2.40
2011,03,23,06,53,2.40
2011,03,23,06,54,2.40
2011,03,23,06,55,2.40
2011,03,23,06,56,2.40
2011,03,23,06,57,2.40
2011,03,23,06,58,2.40
2011,03,23,06,59,2.40
2011,03,23,07,00,2.40
2011,03,23,07,01,2.40
2011,03,23,07,02,2.40
2011,03,23,07,03,2.40
2011,03,23,07,04,2.30
2011,03,23,07,05,2.30
2011,03,23,07,06,2.30
2011,03,23,07,07,2.30
2011,03,23,07,08,2.30
2011,03,23,07,09,2.30
2011,03,23,07,10,2.30
2011,03,23,07,11,2.20
2011,03,23,07,12,2.20
2011,03,23,07,13,2.30
2011,03,23,07,14,2.30
2011,03,23,07,15,2.30
2011,03,23,07,16,2.30
2011,03,23,07,17,2.30
2011,03,23,07,18,2.30
2011,03,23,07,19,2.30
2011,03,23,07,20,2.30
2011,03,23,07,21,2.30
2011,03,23,07,22,2.30
2011,03,23,07,23,2.30
2011,03,23,07,24,2.40
2011,03,23,07,25,2.40
2011,03,23,07,26,2.40
2011,03,23,07,27,2.40
2011,03,23,07,28,2.40
2011,03,23,07,29,2.40
2011,03,23,07,30,2.40
2011,03,23,07,31,2.40
2011,03,23,07,32,2.50
2011,03,23,07,33,2.50
2011,03,23,07,34,2.50
2011,03,23,07,35,2.50
2011,03,23,07,36,2.50
2011,03,23,07,37,2.60
2011,03,23,07,38,2.60
2011,03,23,07,39,2.60
2011,03,23,07,40,2.60
2011,03,23,07,41,2.60
2011,03,23,07,42,2.60
2011,03,23,07,43,2.70
2011,03,23,07,44,2.70
2011,03,23,07,45,2.70
2011,03,23,07,46,2.70
2011,03,23,07,47,2.70
2011,03,23,07,48,2.70
2011,03,23,07,49,2.70
2011,03,23,07,50,2.70
2011,03,23,07,51,2.70
2011,03,23,07,52,2.70
2011,03,23,07,53,2.70
2011,03,23,07,54,2.80
2011,03,23,07,55,2.80
2011,03,23,07,56,2.80
2011,03,23,07,57,2.80
2011,03,23,07,58,2.80
2011,03,23,07,59,2.90
2011,03,23,08,00,2.90
2011,03,23,08,01,2.90
2011,03,23,08,02,3.00
2011,03,23,08,03,3.00
2011,03,23,08,04,3.00
2011,03,23,08,05,3.10
2011,03,23,08,06,3.10
2011,03,23,08,07,3.10
2011,03,23,08,08,3.20
2011,03,23,08,09,3.20
2011,03,23,08,10,3.30
2011,03,23,08,11,3.30
2011,03,23,08,12,3.30
2011,03,23,08,13,3.40
2011,03,23,08,14,3.40
2011,03,23,08,15,3.40
2011,03,23,08,16,3.50
2011,03,23,08,17,3.50
2011,03,23,08,18,3.50
2011,03,23,08,19,3.50
2011,03,23,08,20,3.60
2011,03,23,08,21,3.60
2011,03,23,08,22,3.60
2011,03,23,08,23,3.70
2011,03,23,08,24,3.70
2011,03,23,08,25,3.70
2011,03,23,08,26,3.70
2011,03,23,08,27,3.70
2011,03,23,08,28,3.80
2011,03,23,08,29,3.80
2011,03,23,08,30,3.80
2011,03,23,08,31,3.90
2011,03,23,08,32,3.90
2011,03,23,08,33,3.90
2011,03,23,08,34,3.90
2011,03,23,08,35,3.90
2011,03,23,08,36,4.00
2011,03,23,08,37,4.00
2011,03,23,08,38,4.00
2011,03,23,08,39,4.10
2011,03,23,08,40,4.10
2011,03,23,08,41,4.10
2011,03,23,08,42,4.10
2011,03,23,08,43,4.10
2011,03,23,08,44,4.10
2011,03,23,08,45,4.10
2011,03,23,08,46,4.10
2011,03,23,08,47,4.20
2011,03,23,08,48,4.20
2011,03,23,08,49,4.20
2011,03,23,08,50,4.20
2011,03,23,08,51,4.30
2011,03,23,08,52,4.30
2011,03,23,08,53,4.30
2011,03,23,08,54,4.30
2011,03,23,08,55,4.30
2011,03,23,08,56,4.40
2011,03,23,08,57,4.40
2011,03,23,08,58,4.40
2011,03,23,08,59,4.50
2011,03,23,09,00,4.50
2011,03,23,09,01,4.50
2011,03,23,09,02,4.60
2011,03,23,09,03,4.60
2011,03,23,09,04,4.70
2011,03,23,09,05,4.70
2011,03,23,09,06,4.80
2011,03,23,09,07,4.80
2011,03,23,09,08,4.80
2011,03,23,09,09,4.90
2011,03,23,09,10,4.90
2011,03,23,09,11,4.90
2011,03,23,09,12,5.00
2011,03,23,09,13,5.00
2011,03,23,09,14,5.10
2011,03,23,09,15,5.10
2011,03,23,09,16,5.10
2011,03,23,09,17,5.10
2011,03,23,09,18,5.20
2011,03,23,09,19,5.20
2011,03,23,09,20,5.30
2011,03,23,09,21,5.30
2011,03,23,09,22,5.30
2011,03,23,09,23,5.30
2011,03,23,09,24,5.40
2011,03,23,09,25,5.40
2011,03,23,09,26,5.50
2011,03,23,09,27,5.50
2011,03,23,09,28,5.60
2011,03,23,09,29,5.60
2011,03,23,09,30,5.70
2011,03,23,09,31,5.70
2011,03,23,09,32,5.80
2011,03,23,09,33,5.80
2011,03,23,09,34,5.90
2011,03,23,09,35,5.90
2011,03,23,09,36,5.90
2011,03,23,09,37,5.90
2011,03,23,09,38,5.90
2011,03,23,09,39,5.90
2011,03,23,09,40,5.90
2011,03,23,09,41,6.00
2011,03,23,09,42,6.00
2011,03,23,09,43,6.00
2011,03,23,09,44,6.10
2011,03,23,09,45,6.10
2011,03,23,09,46,6.20
2011,03,23,09,47,6.30
2011,03,23,09,48,6.30
2011,03,23,09,49,6.40
2011,03,23,09,50,6.50
2011,03,23,09,51,6.50
2011,03,23,09,52,6.60
2011,03,23,09,53,6.70
2011,03,23,09,54,6.80
2011,03,23,09,55,6.90
2011,03,23,09,56,7.00
2011,03,23,09,57,7.10
2011,03,23,09,58,7.20
2011,03,23,09,59,7.20
2011,03,23,10,00,7.30
2011,03,23,10,01,7.40
2011,03,23,10,02,7.40
2011,03,23,10,03,7.50
2011,03,23,10,04,7.60
2011,03,23,10,05,7.60
2011,03,23,10,06,7.70
2011,03,23,10,07,7.80
2011,03,23,10,08,7.80
2011,03,23,10,09,7.80
2011,03,23,10,10,7.80
2011,03,23,10,11,7.90
2011,03,23,10,12,7.90
2011,03,23,10,13,7.90
2011,03,23,10,14,8.00
2011,03,23,10,15,8.00
2011,03,23,10,16,8.10
2011,03,23,10,17,8.10
2011,03,23,10,18,8.10
2011,03,23,10,19,8.20
2011,03,23,10,20,8.20
2011,03,23,10,21,8.20
2011,03,23,10,22,8.20
2011,03,23,10,23,8.20
2011,03,23,10,24,8.20
2011,03,23,10,25,8.20
2011,03,23,10,26,8.10
2011,03,23,10,27,8.20
2011,03,23,10,28,8.20
2011,03,23,10,29,8.20
2011,03,23,10,30,8.20
2011,03,23,10,31,8.30
2011,03,23,10,32,8.50
2011,03,23,10,33,8.60
2011,03,23,10,34,8.70
2011,03,23,10,35,8.80
2011,03,23,10,36,8.90
2011,03,23,10,37,8.90
2011,03,23,10,38,9.00
2011,03,23,10,39,9.00
2011,03,23,10,40,9.00
2011,03,23,10,41,9.10
2011,03,23,10,42,9.00
2011,03,23,10,43,9.10
2011,03,23,10,44,9.00
2011,03,23,10,45,9.00
2011,03,23,10,46,8.90
2011,03,23,10,47,8.90
2011,03,23,10,48,9.00
2011,03,23,10,49,9.00
2011,03,23,10,50,9.10
2011,03,23,10,51,9.10
2011,03,23,10,52,9.20
2011,03,23,10,53,9.30
2011,03,23,10,54,9.30
2011,03,23,10,55,9.30
2011,03,23,10,56,9.30
2011,03,23,10,57,9.30
2011,03,23,10,58,9.30
2011,03,23,10,59,9.20
2011,03,23,11,00,9.20
2011,03,23,11,01,9.20
2011,03,23,11,02,9.20
2011,03,23,11,03,9.20
2011,03,23,11,04,9.10
2011,03,23,11,05,9.10
2011,03,23,11,06,9.10
2011,03,23,11,07,9.10
2011,03,23,11,08,9.10
2011,03,23,11,09,9.10
2011,03,23,11,10,9.00
2011,03,23,11,11,8.90
2011,03,23,11,12,8.90
2011,03,23,11,13,8.90
2011,03,23,11,14,8.90
2011,03,23,11,15,8.90
2011,03,23,11,16,9.00
2011,03,23,11,17,9.00
2011,03,23,11,18,9.10
2011,03,23,11,19,9.10
2011,03,23,11,20,9.10
2011,03,23,11,21,9.10
2011,03,23,11,22,9.20
2011,03,23,11,23,9.20
2011,03,23,11,24,9.30
2011,03,23,11,25,9.40
2011,03,23,11,26,9.50
2011,03,23,11,27,9.60
2011,03,23,11,28,9.80
2011,03,23,11,29,9.90
2011,03,23,11,30,10.00
2011,03,23,11,31,10.20
2011,03,23,11,32,10.30
2011,03,23,11,33,10.40
2011,03,23,11,34,10.60
2011,03,23,11,35,10.70
2011,03,23,11,36,10.90
2011,03,23,11,37,11.10
2011,03,23,11,38,11.20
2011,03,23,11,39,11.30
2011,03,23,11,40,11.40
2011,03,23,11,41,11.50
2011,03,23,11,42,11.60
2011,03,23,11,43,11.70
2011,03,23,11,44,11.90
2011,03,23,11,45,12.00
2011,03,23,11,46,12.10
2011,03,23,11,47,12.20
2011,03,23,11,48,12.10
2011,03,23,11,49,12.10
2011,03,23,11,50,12.10
2011,03,23,11,51,12.00
2011,03,23,11,52,12.00
2011,03,23,11,53,12.10
2011,03,23,11,54,12.10
2011,03,23,11,55,12.20
2011,03,23,11,56,12.30
2011,03,23,11,57,12.40
2011,03,23,11,58,12.30
2011,03,23,11,59,12.30
2011,03,23,12,00,12.20
2011,03,23,12,01,12.20
2011,03,23,12,02,12.20
2011,03,23,12,03,12.20
2011,03,23,12,04,12.20
2011,03,23,12,05,12.10
2011,03,23,12,06,12.10
2011,03,23,12,07,12.10
2011,03,23,12,08,12.00
2011,03,23,12,09,12.00
2011,03,23,12,10,12.10
2011,03,23,12,11,12.10
2011,03,23,12,12,12.10
2011,03,23,12,13,12.20
2011,03,23,12,14,12.30
2011,03,23,12,15,12.30
2011,03,23,12,16,12.30
2011,03,23,12,17,12.30
2011,03,23,12,18,12.20
2011,03,23,12,19,12.20
2011,03,23,12,20,12.20
2011,03,23,12,21,12.30
2011,03,23,12,22,12.50
2011,03,23,12,23,12.60
2011,03,23,12,24,12.70
2011,03,23,12,25,12.80
2011,03,23,12,26,12.90
2011,03,23,12,27,13.10
2011,03,23,12,28,13.30
2011,03,23,12,29,13.30
2011,03,23,12,30,13.30
2011,03,23,12,31,13.20
2011,03,23,12,32,13.10
2011,03,23,12,33,13.10
2011,03,23,12,34,13.10
2011,03,23,12,35,13.20
2011,03,23,12,36,13.30
2011,03,23,12,37,13.50
2011,03,23,12,38,13.60
2011,03,23,12,39,13.70
2011,03,23,12,40,13.80
2011,03,23,12,41,13.90
2011,03,23,12,42,14.00
2011,03,23,12,43,14.00
2011,03,23,12,44,14.10
2011,03,23,12,45,14.20
2011,03,23,12,46,14.30
2011,03,23,12,47,14.50
2011,03,23,12,48,14.60
2011,03,23,12,49,14.70
2011,03,23,12,50,14.80
2011,03,23,12,51,14.90
2011,03,23,12,52,15.00
2011,03,23,12,53,15.10
2011,03,23,12,54,15.30
2011,03,23,12,55,15.50
2011,03,23,12,56,15.70
2011,03,23,12,57,15.90
2011,03,23,12,58,16.10
2011,03,23,12,59,16.20
2011,03,23,13,00,16.40
2011,03,23,13,01,16.50
2011,03,23,13,02,16.70
2011,03,23,13,03,16.80
2011,03,23,13,04,16.80
2011,03,23,13,05,16.80
2011,03,23,13,06,16.80
2011,03,23,13,07,16.80
2011,03,23,13,08,16.90
2011,03,23,13,09,17.00
2011,03,23,13,10,16.80
2011,03,23,13,11,16.50
2011,03,23,13,12,16.10
2011,03,23,13,13,15.90
2011,03,23,13,14,15.80
2011,03,23,13,15,15.90
2011,03,23,13,16,15.90
2011,03,23,13,17,16.00
2011,03,23,13,18,16.10
2011,03,23,13,19,16.20
2011,03,23,13,20,16.30
2011,03,23,13,21,16.50
2011,03,23,13,22,16.70
2011,03,23,13,23,16.80
2011,03,23,13,24,17.00
2011,03,23,13,25,17.20
2011,03,23,13,26,17.30
2011,03,23,13,27,17.20
2011,03,23,13,28,17.30
2011,03,23,13,29,17.30
2011,03,23,13,30,17.30
2011,03,23,13,31,17.30
2011,03,23,13,32,17.40
2011,03,23,13,33,17.40
2011,03,23,13,34,17.40
2011,03,23,13,35,17.20
2011,03,23,13,36,17.10
2011,03,23,13,37,17.10
2011,03,23,13,38,17.00
2011,03,23,13,39,16.80
2011,03,23,13,40,16.70
2011,03,23,13,41,16.60
2011,03,23,13,42,16.50
2011,03,23,13,43,16.50
2011,03,23,13,44,16.40
2011,03,23,13,45,16.40
2011,03,23,13,46,16.40
2011,03,23,13,47,16.40
2011,03,23,13,48,16.30
2011,03,23,13,49,16.10
2011,03,23,13,50,16.00
2011,03,23,13,51,15.80
2011,03,23,13,52,15.70
2011,03,23,13,53,15.70
2011,03,23,13,54,15.70
2011,03,23,13,55,15.70
2011,03,23,13,56,15.80
2011,03,23,13,57,15.70
2011,03,23,13,58,15.70
2011,03,23,13,59,15.80
2011,03,23,14,00,15.70
2011,03,23,14,01,15.80
2011,03,23,14,02,16.00
2011,03,23,14,03,16.20
2011,03,23,14,04,16.40
2011,03,23,14,05,16.50
2011,03,23,14,06,16.70
2011,03,23,14,07,16.80
2011,03,23,14,08,16.80
2011,03,23,14,09,16.90
2011,03,23,14,10,17.10
2011,03,23,14,11,17.10
2011,03,23,14,12,17.10
2011,03,23,14,13,16.70
2011,03,23,14,14,16.50
2011,03,23,14,15,16.40
2011,03,23,14,16,16.40
2011,03,23,14,17,16.50
2011,03,23,14,18,16.40
2011,03,23,14,19,16.20
2011,03,23,14,20,16.20
2011,03,23,14,21,16.20
2011,03,23,14,22,16.30
2011,03,23,14,23,16.30
2011,03,23,14,24,16.40
2011,03,23,14,25,16.50
2011,03,23,14,26,16.60
2011,03,23,14,27,16.70
2011,03,23,14,28,16.80
2011,03,23,14,29,16.90
2011,03,23,14,30,17.00
2011,03,23,14,31,17.00
2011,03,23,14,32,17.00
2011,03,23,14,33,17.00
2011,03,23,14,34,17.10
2011,03,23,14,35,17.20
2011,03,23,14,36,17.20
2011,03,23,14,37,17.20
2011,03,23,14,38,17.30
2011,03,23,14,39,17.40
2011,03,23,14,40,17.60
2011,03,23,14,41,17.70
2011,03,23,14,42,17.80
2011,03,23,14,43,17.50
2011,03,23,14,44,17.30
2011,03,23,14,45,17.20
2011,03,23,14,46,17.20
2011,03,23,14,47,17.20
2011,03,23,14,48,17.10
2011,03,23,14,49,17.00
2011,03,23,14,50,16.80
2011,03,23,14,51,16.70
2011,03,23,14,52,16.60
2011,03,23,14,53,16.60
2011,03,23,14,54,16.60
2011,03,23,14,55,16.70
2011,03,23,14,56,16.80
2011,03,23,14,57,16.80
2011,03,23,14,58,16.80
2011,03,23,14,59,16.80
2011,03,23,15,00,16.70
2011,03,23,15,01,16.70
2011,03,23,15,02,16.70
2011,03,23,15,03,16.60
2011,03,23,15,04,16.40
2011,03,23,15,05,16.40
2011,03,23,15,06,16.40
2011,03,23,15,07,16.30
2011,03,23,15,08,16.30
2011,03,23,15,09,16.30
2011,03,23,15,10,16.30
2011,03,23,15,11,16.30
2011,03,23,15,12,16.20
2011,03,23,15,13,16.20
2011,03,23,15,14,16.20
2011,03,23,15,15,16.20
2011,03,23,15,16,16.20
2011,03,23,15,17,16.10
2011,03,23,15,18,16.10
2011,03,23,15,19,15.90
2011,03,23,15,20,15.80
2011,03,23,15,21,15.80
2011,03,23,15,22,15.70
2011,03,23,15,23,15.70
2011,03,23,15,24,15.80
2011,03,23,15,25,15.90
2011,03,23,15,26,15.80
2011,03,23,15,27,15.80
2011,03,23,15,28,15.80
2011,03,23,15,29,15.80
2011,03,23,15,30,15.70
2011,03,23,15,31,15.50
2011,03,23,15,32,15.40
2011,03,23,15,33,15.30
2011,03,23,15,34,15.30
2011,03,23,15,35,15.20
2011,03,23,15,36,15.10
2011,03,23,15,37,15.20
2011,03,23,15,38,15.20
2011,03,23,15,39,15.10
2011,03,23,15,40,15.00
2011,03,23,15,41,15.00
2011,03,23,15,42,15.00
2011,03,23,15,43,15.00
2011,03,23,15,44,15.00
2011,03,23,15,45,15.00
2011,03,23,15,46,15.20
2011,03,23,15,47,15.30
2011,03,23,15,48,15.50
2011,03,23,15,49,15.60
2011,03,23,15,50,15.70
2011,03,23,15,51,15.80
2011,03,23,15,52,15.80
2011,03,23,15,53,15.60
2011,03,23,15,54,15.60
2011,03,23,15,55,15.70
2011,03,23,15,56,15.70
2011,03,23,15,57,15.70
2011,03,23,15,58,15.70
2011,03,23,15,59,15.80
2011,03,23,16,00,15.80
2011,03,23,16,01,15.90
2011,03,23,16,02,15.80
2011,03,23,16,03,15.80
2011,03,23,16,04,15.80
2011,03,23,16,05,15.70
2011,03,23,16,06,15.70
2011,03,23,16,07,15.70
2011,03,23,16,08,15.70
2011,03,23,16,09,15.80
2011,03,23,16,10,15.90
2011,03,23,16,11,16.00
2011,03,23,16,12,16.20
2011,03,23,16,13,16.40
2011,03,23,16,14,16.50
2011,03,23,16,15,16.70
2011,03,23,16,16,16.80
2011,03,23,16,17,17.00
2011,03,23,16,18,17.10
2011,03,23,16,19,17.10
2011,03,23,16,20,17.10
2011,03,23,16,21,17.10
2011,03,23,16,22,17.10
2011,03,23,16,23,17.10
2011,03,23,16,24,17.10
2011,03,23,16,25,17.10
2011,03,23,16,26,16.90
2011,03,23,16,27,16.90
2011,03,23,16,28,16.90
2011,03,23,16,29,16.90
2011,03,23,16,30,16.80
2011,03,23,16,31,16.80
2011,03,23,16,32,16.80
2011,03,23,16,33,16.70
2011,03,23,16,34,16.70
2011,03,23,16,35,16.70
2011,03,23,16,36,16.80
2011,03,23,16,37,16.90
2011,03,23,16,38,17.00
2011,03,23,16,39,17.10
2011,03,23,16,40,17.20
2011,03,23,16,41,17.20
2011,03,23,16,42,17.30
2011,03,23,16,43,17.30
2011,03,23,16,44,17.40
2011,03,23,16,45,17.40
2011,03,23,16,46,17.40
2011,03,23,16,47,17.40
2011,03,23,16,48,17.30
2011,03,23,16,49,17.30
2011,03,23,16,50,17.30
2011,03,23,16,51,17.10
2011,03,23,16,52,17.00
2011,03,23,16,53,17.00
2011,03,23,16,54,16.90
2011,03,23,16,55,16.80
2011,03,23,16,56,16.80
2011,03,23,16,57,16.80
2011,03,23,16,58,16.90
2011,03,23,16,59,16.90
2011,03,23,17,00,16.90
2011,03,23,17,01,16.90
2011,03,23,17,02,16.90
2011,03,23,17,03,16.90
2011,03,23,17,04,16.90
2011,03,23,17,05,16.80
2011,03,23,17,06,16.80
2011,03,23,17,07,16.70
2011,03,23,17,08,16.70
2011,03,23,17,09,16.70
2011,03,23,17,10,16.70
2011,03,23,17,11,16.70
2011,03,23,17,12,16.70
2011,03,23,17,13,16.70
2011,03,23,17,14,16.70
2011,03,23,17,15,16.70
2011,03,23,17,16,16.70
2011,03,23,17,17,16.60
2011,03,23,17,18,16.50
2011,03,23,17,19,16.40
2011,03,23,17,20,16.30
2011,03,23,17,21,16.20
2011,03,23,17,22,16.00
2011,03,23,17,23,15.80
2011,03,23,17,24,15.70
2011,03,23,17,25,15.60
2011,03,23,17,26,15.50
2011,03,23,17,27,15.50
2011,03,23,17,28,15.40
2011,03,23,17,29,15.40
2011,03,23,17,30,15.40
2011,03,23,17,31,15.40
2011,03,23,17,32,15.40
2011,03,23,17,33,15.40
2011,03,23,17,34,15.40
2011,03,23,17,35,15.30
2011,03,23,17,36,15.20
2011,03,23,17,37,15.20
2011,03,23,17,38,15.20
2011,03,23,17,39,15.10
2011,03,23,17,40,15.10
2011,03,23,17,41,15.10
2011,03,23,17,42,15.00
2011,03,23,17,43,15.00
2011,03,23,17,44,15.00
2011,03,23,17,45,15.00
2011,03,23,17,46,15.00
2011,03,23,17,47,15.00
2011,03,23,17,48,15.00
2011,03,23,17,49,14.90